• In Hungary
  • List of Countries
  • For 7 days
  • Water Temperature
  • Satellite Maps
  • Weather Map
  • News
  • Weather Widgets
  • user-avatar
    Login

    Hourly Weather Kalgoorlie

    Today, 20 September, Wednesday

    Time Temperature Precipitation Wind Pressure Humidity
    00:00 +21°C° 0 mm 5 mps 728 mmHg 47%
    01:00 +20°C° 0 mm 5 mps 728 mmHg 54%
    02:00 +19°C° 0 mm 4 mps 727 mmHg 59%
    03:00 +19°C° 0 mm 4 mps 727 mmHg 64%
    04:00 +18°C° 0 mm 3 mps 728 mmHg 69%
    05:00 +17°C° 0 mm 2 mps 728 mmHg 73%
    06:00 +18°C° 0 mm 3 mps 728 mmHg 71%
    07:00 +19°C° 0 mm 3 mps 728 mmHg 68%
    08:00 +20°C° 0 mm 3 mps 728 mmHg 63%
    09:00 +21°C° 0 mm 4 mps 728 mmHg 56%
    10:00 +23°C° 0 mm 5 mps 728 mmHg 48%
    11:00 +24°C° 0 mm 6 mps 728 mmHg 41%
    12:00 +26°C° 0 mm 7 mps 728 mmHg 39%
    13:00 +26°C° 0 mm 8 mps 727 mmHg 38%
    14:00 +27°C° 0 mm 8 mps 727 mmHg 36%
    15:00 +26°C° 0 mm 8 mps 727 mmHg 39%
    16:00 +24°C° 0 mm 8 mps 727 mmHg 41%
    17:00 +23°C° 0 mm 8 mps 727 mmHg 44%
    18:00 +22°C° 0 mm 6 mps 728 mmHg 46%
    19:00 +22°C° 0 mm 4 mps 728 mmHg 48%
    20:00 +21°C° 0 mm 3 mps 728 mmHg 50%
    21:00 +20°C° 0 mm 3 mps 728 mmHg 52%
    22:00 +19°C° 0 mm 2 mps 728 mmHg 55%
    23:00 +18°C° 0 mm 2 mps 728 mmHg 58%

    Tomorrow, 21 September, Thursday

    Time Temperature Precipitation Wind Pressure Humidity
    00:00 +18°C° 0 mm 2 mps 728 mmHg 60%
    01:00 +18°C° 0 mm 2 mps 728 mmHg 62%
    02:00 +17°C° 0 mm 2 mps 727 mmHg 64%
    03:00 +17°C° 0 mm 2 mps 727 mmHg 65%
    04:00 +17°C° 0 mm 2 mps 727 mmHg 65%
    05:00 +16°C° 0 mm 2 mps 727 mmHg 66%
    06:00 +18°C° 0 mm 3 mps 727 mmHg 61%
    07:00 +19°C° 0 mm 5 mps 727 mmHg 55%
    08:00 +21°C° 0 mm 6 mps 727 mmHg 49%
    09:00 +23°C° 0 mm 7 mps 726 mmHg 43%
    10:00 +26°C° 0 mm 9 mps 726 mmHg 37%
    11:00 +28°C° 0 mm 10 mps 725 mmHg 31%
    12:00 +29°C° 0 mm 11 mps 724 mmHg 27%
    13:00 +31°C° 0 mm 11 mps 724 mmHg 24%
    14:00 +32°C° 0 mm 12 mps 723 mmHg 20%
    15:00 +32°C° 0 mm 12 mps 723 mmHg 20%
    16:00 +32°C° 0 mm 12 mps 722 mmHg 20%
    17:00 +31°C° 0 mm 12 mps 722 mmHg 19%
    18:00 +29°C° 0 mm 10 mps 723 mmHg 23%
    19:00 +27°C° 0 mm 9 mps 723 mmHg 26%
    20:00 +26°C° 0 mm 7 mps 723 mmHg 29%
    21:00 +24°C° 0 mm 7 mps 723 mmHg 37%
    22:00 +22°C° 0 mm 6 mps 724 mmHg 45%
    23:00 +21°C° 0 mm 6 mps 724 mmHg 53%

    Day after tomorrow, 22 September, Friday

    Time Temperature Precipitation Wind Pressure Humidity
    00:00 +20°C° 0 mm 6 mps 723 mmHg 58%
    01:00 +20°C° 0 mm 5 mps 723 mmHg 63%
    02:00 +19°C° 0 mm 5 mps 723 mmHg 68%
    03:00 +17°C° 0 mm 5 mps 723 mmHg 70%
    04:00 +17°C° 0 mm 5 mps 722 mmHg 72%
    05:00 +17°C° 0 mm 5 mps 722 mmHg 75%
    06:00 +18°C° 0.1 mm 7 mps 722 mmHg 71%
    07:00 +18°C° 0.1 mm 8 mps 723 mmHg 67%
    08:00 +19°C° 0.1 mm 10 mps 723 mmHg 63%
    09:00 +19°C° 0.2 mm 11 mps 722 mmHg 60%
    10:00 +21°C° 0.2 mm 12 mps 722 mmHg 57%
    11:00 +20°C° 0.2 mm 13 mps 722 mmHg 54%
    12:00 +20°C° 0 mm 14 mps 721 mmHg 48%
    13:00 +22°C° 0 mm 15 mps 721 mmHg 43%
    14:00 +22°C° 0 mm 16 mps 721 mmHg 37%
    15:00 +19°C° 0.1 mm 15 mps 721 mmHg 43%
    16:00 +18°C° 0.1 mm 14 mps 722 mmHg 50%
    17:00 +15°C° 0.1 mm 14 mps 722 mmHg 56%
    18:00 +15°C° 0 mm 12 mps 723 mmHg 53%
    19:00 +16°C° 0 mm 10 mps 724 mmHg 50%
    20:00 +15°C° 0 mm 9 mps 724 mmHg 47%
    21:00 +15°C° 0 mm 9 mps 725 mmHg 51%
    22:00 +13°C° 0 mm 9 mps 725 mmHg 55%
    23:00 +12°C° 0 mm 9 mps 725 mmHg 59%

    23 September, Saturday

    Time Temperature Precipitation Wind Pressure Humidity
    00:00 +12°C° 0 mm 9 mps 725 mmHg 63%
    01:00 +11°C° 0 mm 8 mps 725 mmHg 67%
    02:00 +11°C° 0 mm 8 mps 725 mmHg 71%
    03:00 +11°C° 0 mm 8 mps 725 mmHg 72%
    04:00 +11°C° 0 mm 8 mps 725 mmHg 73%
    05:00 +11°C° 0 mm 8 mps 725 mmHg 74%
    06:00 +11°C° 0 mm 8 mps 726 mmHg 69%
    07:00 +11°C° 0 mm 9 mps 726 mmHg 64%
    08:00 +11°C° 0 mm 9 mps 727 mmHg 59%
    09:00 +13°C° 0 mm 9 mps 727 mmHg 53%
    10:00 +15°C° 0 mm 9 mps 727 mmHg 47%
    11:00 +16°C° 0 mm 9 mps 727 mmHg 41%
    12:00 +16°C° 0 mm 9 mps 726 mmHg 40%
    13:00 +16°C° 0 mm 9 mps 726 mmHg 40%
    14:00 +17°C° 0 mm 9 mps 725 mmHg 40%
    15:00 +16°C° 0 mm 9 mps 726 mmHg 41%
    16:00 +16°C° 0 mm 8 mps 726 mmHg 42%
    17:00 +16°C° 0 mm 8 mps 726 mmHg 43%
    18:00 +15°C° 0 mm 7 mps 726 mmHg 43%
    19:00 +15°C° 0 mm 6 mps 726 mmHg 44%
    20:00 +15°C° 0 mm 4 mps 727 mmHg 44%
    21:00 +15°C° 0 mm 4 mps 726 mmHg 45%
    22:00 +14°C° 0 mm 4 mps 726 mmHg 46%
    23:00 +14°C° 0 mm 3 mps 726 mmHg 48%

    24 September, Sunday

    Time Temperature Precipitation Wind Pressure Humidity
    00:00 +14°C° 0 mm 3 mps 725 mmHg 51%
    01:00 +14°C° 0 mm 4 mps 725 mmHg 54%
    02:00 +13°C° 0 mm 4 mps 724 mmHg 57%
    03:00 +13°C° 0 mm 4 mps 724 mmHg 59%
    04:00 +13°C° 0 mm 4 mps 724 mmHg 62%
    05:00 +12°C° 0 mm 5 mps 724 mmHg 64%
    06:00 +13°C° 0.1 mm 5 mps 724 mmHg 63%
    07:00 +13°C° 0.1 mm 5 mps 725 mmHg 63%
    08:00 +13°C° 0.1 mm 5 mps 725 mmHg 62%
    09:00 +15°C° 0 mm 6 mps 725 mmHg 54%
    10:00 +16°C° 0 mm 7 mps 724 mmHg 46%
    11:00 +17°C° 0 mm 8 mps 724 mmHg 38%
    12:00 +18°C° 0 mm 8 mps 723 mmHg 36%
    13:00 +18°C° 0 mm 8 mps 723 mmHg 34%
    14:00 +20°C° 0 mm 8 mps 722 mmHg 33%
    15:00 +20°C° 0 mm 8 mps 722 mmHg 33%
    16:00 +20°C° 0 mm 7 mps 722 mmHg 33%
    17:00 +18°C° 0 mm 7 mps 722 mmHg 33%
    18:00 +19°C° 0 mm 6 mps 722 mmHg 36%
    19:00 +17°C° 0 mm 5 mps 723 mmHg 39%
    20:00 +16°C° 0 mm 5 mps 723 mmHg 43%
    21:00 +15°C° 0 mm 5 mps 723 mmHg 48%
    22:00 +14°C° 0 mm 4 mps 722 mmHg 54%
    23:00 +14°C° 0 mm 4 mps 722 mmHg 60%

    25 September, Monday

    Time Temperature Precipitation Wind Pressure Humidity
    00:00 +13°C° 0 mm 4 mps 722 mmHg 63%
    01:00 +12°C° 0 mm 3 mps 721 mmHg 65%
    02:00 +12°C° 0 mm 3 mps 721 mmHg 68%
    03:00 +12°C° 0 mm 3 mps 721 mmHg 69%
    04:00 +11°C° 0 mm 4 mps 721 mmHg 70%
    05:00 +11°C° 0 mm 4 mps 721 mmHg 70%
    06:00 +12°C° 0 mm 5 mps 721 mmHg 67%
    07:00 +13°C° 0 mm 6 mps 722 mmHg 64%
    08:00 +12°C° 0 mm 7 mps 722 mmHg 61%
    09:00 +12°C° 0.7 mm 7 mps 721 mmHg 63%
    10:00 +12°C° 0.7 mm 8 mps 721 mmHg 64%
    11:00 +12°C° 0.7 mm 8 mps 720 mmHg 66%
    12:00 +12°C° 0.6 mm 7 mps 720 mmHg 65%
    13:00 +12°C° 0.6 mm 7 mps 719 mmHg 64%
    14:00 +12°C° 0.6 mm 7 mps 719 mmHg 64%
    15:00 +11°C° 0.3 mm 6 mps 719 mmHg 64%
    16:00 +11°C° 0.3 mm 6 mps 719 mmHg 64%
    17:00 +10°C° 0.3 mm 5 mps 719 mmHg 64%
    18:00 +10°C° 0.1 mm 5 mps 719 mmHg 65%
    19:00 +10°C° 0.1 mm 5 mps 719 mmHg 66%
    20:00 +10°C° 0.1 mm 4 mps 719 mmHg 67%
    21:00 +9°C° 0.4 mm 6 mps 719 mmHg 70%
    22:00 +9°C° 0.4 mm 7 mps 719 mmHg 72%
    23:00 +8°C° 0.4 mm 9 mps 719 mmHg 75%
    Show more